Location: Juzet
(42.9779°N, 0.7597°E)
Time: 02:14:00
(UTC+00:00)

SL-08 R/B - Pass Details

Date: 14 July 2020
Orbit: 675 x 738 km, 98.4° (Epoch: 04 August)

Event Time Altitude Azimuth Distance (km) Brightness Sun altitude
Exits shadow 03:01:17 10° 178° (S) 2,149 5.4 -13.5°
Maximum altitude 03:05:56 61° 259° (WSW) 804 3.4 -12.9°
Drops below altitude 10° 03:10:44 10° 340° (NNW) 2,211 6.2 -12.3°
Sets 03:13:04 0° 344° (NNW) 3,146 7.1 -12.0°
